AUA388 LFML-LOWW

Flight info

Callsign AUA388
Flight time 1h 25m
Altitude 36000
Route NASIK P856 RAPED DCT PIGOS DCT EKSID DCT NOSTA DCT EGHIN DCT ARALD DCT ABTAN ABTAN2W
Aircraft A20N/M-SDE2E3FGHIRWXY/LB1

Departure

Time 2026-04-26 17:10
Airport Marseille Provence Airport (LFML)

Arrival

Time 2026-04-26 18:36
Airport Vienna International Airport (LOWW)
Time Latitude Longitude Altitude Speed Heading
2026-04-26 16:37 43.43928 5.22291 40 ft 0 kts 28°
2026-04-26 17:02 43.43927 5.22290 40 ft 2 kts 28°
2026-04-26 17:02 43.43912 5.22279 39 ft 2 kts 30°
2026-04-26 17:03 43.43898 5.22267 38 ft 2 kts 32°
2026-04-26 17:03 43.43884 5.22255 36 ft 2 kts 36°
2026-04-26 17:03 43.43871 5.22240 37 ft 2 kts 44°
2026-04-26 17:03 43.43861 5.22223 40 ft 2 kts 52°
2026-04-26 17:04 43.43847 5.22210 36 ft 2 kts
2026-04-26 17:04 43.43831 5.22213 38 ft 2 kts 344°
2026-04-26 17:04 43.43828 5.22215 38 ft 0 kts 343°
2026-04-26 17:06 43.43829 5.22214 38 ft 0 kts 343°
2026-04-26 17:06 43.43853 5.22201 39 ft 9 kts 330°
2026-04-26 17:06 43.43843 5.22107 39 ft 13 kts 221°
2026-04-26 17:07 43.43783 5.22006 40 ft 14 kts 271°
2026-04-26 17:07 43.43850 5.21891 40 ft 17 kts 314°
2026-04-26 17:07 43.43940 5.21763 40 ft 20 kts 314°
2026-04-26 17:07 43.43962 5.21610 39 ft 19 kts 225°
2026-04-26 17:08 43.43942 5.21459 40 ft 19 kts 313°
2026-04-26 17:08 43.44042 5.21316 40 ft 22 kts 315°
2026-04-26 17:08 43.44156 5.21154 40 ft 25 kts 314°
2026-04-26 17:08 43.44275 5.20972 40 ft 24 kts 302°
2026-04-26 17:09 43.44303 5.20812 38 ft 17 kts 242°
2026-04-26 17:09 43.44246 5.20727 38 ft 19 kts 233°
2026-04-26 17:09 43.44156 5.20505 39 ft 18 kts 240°
2026-04-26 17:09 43.44064 5.20411 36 ft 18 kts 160°
2026-04-26 17:10 43.43937 5.20571 36 ft 46 kts 135°
2026-04-26 17:10 43.43550 5.21106 38 ft 112 kts 135°
2026-04-26 17:10 43.42862 5.22061 127 ft 157 kts 137°
2026-04-26 17:10 43.42107 5.23124 858 ft 152 kts 134°
2026-04-26 17:11 43.41757 5.24470 1572 ft 157 kts 89°
2026-04-26 17:11 43.41926 5.26075 1952 ft 184 kts 78°
2026-04-26 17:11 43.42224 5.27920 2263 ft 210 kts 76°
2026-04-26 17:11 43.42543 5.30037 2485 ft 242 kts 77°
2026-04-26 17:12 43.43124 5.34871 3688 ft 263 kts 86°
2026-04-26 17:12 43.43085 5.37429 4483 ft 266 kts 90°
2026-04-26 17:13 43.42834 5.42563 5856 ft 274 kts 91°
2026-04-26 17:13 43.42700 5.45192 6633 ft 276 kts 91°
2026-04-26 17:13 43.42431 5.50526 8136 ft 283 kts 91°
2026-04-26 17:14 43.42296 5.53252 8927 ft 287 kts 91°
2026-04-26 17:14 43.42021 5.58783 10421 ft 296 kts 91°
2026-04-26 17:14 43.41877 5.61698 10727 ft 315 kts 91°
2026-04-26 17:15 43.41561 5.68015 11474 ft 346 kts 92°
2026-04-26 17:15 43.41391 5.71382 12147 ft 351 kts 91°
2026-04-26 17:15 43.41366 5.74713 12788 ft 354 kts 86°
2026-04-26 17:16 43.41462 5.78110 13437 ft 358 kts 85°
2026-04-26 17:16 43.41584 5.81555 14079 ft 361 kts 85°
2026-04-26 17:16 43.41708 5.85018 14657 ft 365 kts 85°
2026-04-26 17:16 43.41833 5.88530 15232 ft 369 kts 85°
2026-04-26 17:17 43.41956 5.92071 15808 ft 373 kts 85°
2026-04-26 17:17 43.42077 5.95648 16391 ft 377 kts 85°
2026-04-26 17:17 43.42199 5.99267 16977 ft 380 kts 85°
2026-04-26 17:17 43.42320 6.02919 17534 ft 384 kts 86°
2026-04-26 17:18 43.42441 6.06616 18119 ft 387 kts 85°
2026-04-26 17:18 43.42560 6.10330 18646 ft 391 kts 86°
2026-04-26 17:18 43.42681 6.14099 19155 ft 394 kts 86°
2026-04-26 17:18 43.42802 6.17889 19672 ft 398 kts 86°
2026-04-26 17:19 43.43010 6.25497 20683 ft 404 kts 89°
2026-04-26 17:19 43.42877 6.29378 21195 ft 407 kts 93°
2026-04-26 17:19 43.42605 6.33264 21689 ft 410 kts 95°
2026-04-26 17:20 43.42256 6.37179 22181 ft 414 kts 96°
2026-04-26 17:20 43.41999 6.39836 22517 ft 416 kts 97°
2026-04-26 17:20 43.41482 6.45066 23167 ft 420 kts 97°
2026-04-26 17:20 43.41092 6.49064 23656 ft 423 kts 96°
2026-04-26 17:21 43.40709 6.53082 24068 ft 426 kts 96°
2026-04-26 17:21 43.40328 6.57145 24474 ft 429 kts 96°
2026-04-26 17:21 43.39950 6.61226 24867 ft 431 kts 96°
2026-04-26 17:21 43.39572 6.65319 25250 ft 434 kts 96°
2026-04-26 17:22 43.39190 6.69449 25627 ft 436 kts 96°
2026-04-26 17:22 43.38806 6.73596 25965 ft 440 kts 97°
2026-04-26 17:22 43.38414 6.77802 26145 ft 447 kts 97°
2026-04-26 17:22 43.38167 6.82084 26290 ft 453 kts 90°
2026-04-26 17:23 43.38362 6.86429 26551 ft 456 kts 81°
2026-04-26 17:23 43.39082 6.90676 26939 ft 455 kts 70°
2026-04-26 17:23 43.40336 6.94660 27353 ft 453 kts 60°
2026-04-26 17:23 43.41966 6.98303 27798 ft 452 kts 55°
2026-04-26 17:24 43.43739 7.01865 28234 ft 451 kts 53°
2026-04-26 17:24 43.45578 7.05371 28680 ft 450 kts 52°
2026-04-26 17:24 43.47431 7.08835 29118 ft 449 kts 52°
2026-04-26 17:24 43.49289 7.12307 29573 ft 449 kts 52°
2026-04-26 17:25 43.51133 7.15777 30044 ft 448 kts 52°
2026-04-26 17:25 43.52958 7.19238 30467 ft 447 kts 53°
2026-04-26 17:25 43.54776 7.22711 30819 ft 447 kts 53°
2026-04-26 17:25 43.56596 7.26207 31167 ft 447 kts 53°
2026-04-26 17:26 43.58401 7.29688 31513 ft 446 kts 53°
2026-04-26 17:26 43.60205 7.33176 31853 ft 446 kts 53°
2026-04-26 17:26 43.62006 7.36661 32180 ft 445 kts 53°
2026-04-26 17:26 43.63800 7.40137 32517 ft 445 kts 53°
2026-04-26 17:27 43.65595 7.43619 32835 ft 445 kts 53°
2026-04-26 17:27 43.67387 7.47098 33144 ft 444 kts 53°
2026-04-26 17:27 43.69152 7.50527 33469 ft 444 kts 53°
2026-04-26 17:27 43.70939 7.54004 33788 ft 443 kts 53°
2026-04-26 17:28 43.72717 7.57466 34098 ft 442 kts 53°
2026-04-26 17:28 43.74500 7.60942 34361 ft 441 kts 53°
2026-04-26 17:28 43.76270 7.64398 34606 ft 441 kts 53°
2026-04-26 17:28 43.78041 7.67860 34847 ft 440 kts 53°
2026-04-26 17:29 43.79809 7.71321 35084 ft 440 kts 53°
2026-04-26 17:29 43.80999 7.73652 35244 ft 439 kts 53°
2026-04-26 17:29 43.83339 7.78238 35536 ft 439 kts 53°
2026-04-26 17:29 43.85101 7.81686 35755 ft 439 kts 53°
2026-04-26 17:30 43.86863 7.85134 35962 ft 438 kts 53°
2026-04-26 17:30 43.88625 7.88588 36118 ft 440 kts 53°
2026-04-26 17:30 43.92182 7.95567 36137 ft 447 kts 53°
2026-04-26 17:31 43.95813 8.02710 36133 ft 458 kts 53°
2026-04-26 17:31 43.99513 8.10010 36130 ft 464 kts 53°
2026-04-26 17:32 44.03199 8.17305 36131 ft 463 kts 53°
2026-04-26 17:32 44.06953 8.24581 36131 ft 462 kts 51°
2026-04-26 17:33 44.10921 8.31625 36132 ft 463 kts 50°
2026-04-26 17:34 44.16519 8.41383 36135 ft 463 kts 50°
2026-04-26 17:34 44.20513 8.48425 36140 ft 463 kts 50°
2026-04-26 17:35 44.24463 8.55443 36137 ft 463 kts 50°
2026-04-26 17:35 44.28433 8.62521 36135 ft 463 kts 50°
2026-04-26 17:36 44.32401 8.69614 36132 ft 463 kts 50°
2026-04-26 17:36 44.36366 8.76714 36130 ft 463 kts 50°
2026-04-26 17:37 44.40319 8.83811 36131 ft 463 kts 50°
2026-04-26 17:37 44.44280 8.90938 36133 ft 463 kts 50°
2026-04-26 17:38 44.50181 9.01590 36132 ft 463 kts 50°
2026-04-26 17:38 44.54137 9.08753 36130 ft 464 kts 50°
2026-04-26 17:39 44.58083 9.15918 36113 ft 464 kts 50°
2026-04-26 17:39 44.62032 9.23104 36117 ft 465 kts 50°
2026-04-26 17:40 44.64645 9.27868 36122 ft 465 kts 50°
2026-04-26 17:40 44.69902 9.37478 36101 ft 465 kts 50°
2026-04-26 17:41 44.73843 9.44705 36086 ft 466 kts 50°
2026-04-26 17:41 44.77787 9.51955 36071 ft 466 kts 50°
2026-04-26 17:42 44.81724 9.59211 36059 ft 466 kts 50°
2026-04-26 17:42 44.85661 9.66484 36054 ft 467 kts 50°
2026-04-26 17:43 44.89596 9.73774 36051 ft 467 kts 50°
2026-04-26 17:43 44.93529 9.81076 36053 ft 467 kts 50°
2026-04-26 17:44 44.97454 9.88384 36050 ft 467 kts 50°
2026-04-26 17:44 45.01355 9.95664 36059 ft 467 kts 50°
2026-04-26 17:45 45.05273 10.02996 36056 ft 468 kts 50°
2026-04-26 17:45 45.09193 10.10350 36062 ft 468 kts 50°
2026-04-26 17:46 45.13112 10.17721 36067 ft 468 kts 51°
2026-04-26 17:46 45.17023 10.25095 36071 ft 468 kts 51°
2026-04-26 17:47 45.19610 10.29985 36073 ft 468 kts 51°
2026-04-26 17:47 45.24808 10.39834 36071 ft 468 kts 51°
2026-04-26 17:48 45.28055 10.46003 36076 ft 469 kts 51°
2026-04-26 17:48 45.31951 10.53423 36077 ft 469 kts 51°
2026-04-26 17:49 45.35853 10.60874 36077 ft 469 kts 51°
2026-04-26 17:49 45.39746 10.68329 36076 ft 469 kts 51°
2026-04-26 17:50 45.43634 10.75791 36078 ft 470 kts 51°
2026-04-26 17:50 45.47527 10.83284 36077 ft 470 kts 51°
2026-04-26 17:51 45.51407 10.90772 36078 ft 470 kts 51°
2026-04-26 17:51 45.55288 10.98281 36077 ft 470 kts 51°
2026-04-26 17:52 45.59145 11.05764 36082 ft 470 kts 51°
2026-04-26 17:52 45.63019 11.13299 36095 ft 470 kts 51°
2026-04-26 17:53 45.66884 11.20838 36103 ft 470 kts 51°
2026-04-26 17:54 45.72676 11.32173 36110 ft 470 kts 51°
2026-04-26 17:54 45.76531 11.39739 36116 ft 470 kts 51°
2026-04-26 17:55 45.80382 11.47322 36117 ft 470 kts 51°
2026-04-26 17:55 45.84227 11.54912 36112 ft 470 kts 51°
2026-04-26 17:56 45.88061 11.62501 36120 ft 470 kts 52°
2026-04-26 17:57 45.95686 11.77654 36112 ft 469 kts 52°
2026-04-26 17:57 45.99523 11.85310 36090 ft 468 kts 52°
2026-04-26 17:58 46.07089 12.00467 36108 ft 467 kts 52°
2026-04-26 17:59 46.12758 12.11879 36105 ft 466 kts 52°
2026-04-26 17:59 46.16529 12.19494 36101 ft 467 kts 52°
2026-04-26 18:00 46.20301 12.27134 36110 ft 467 kts 52°
2026-04-26 18:00 46.24076 12.34800 36105 ft 468 kts 52°
2026-04-26 18:01 46.27847 12.42476 36109 ft 468 kts 52°
2026-04-26 18:01 46.31611 12.50165 36110 ft 468 kts 52°
2026-04-26 18:02 46.34736 12.56560 36116 ft 468 kts 52°
2026-04-26 18:02 46.39108 12.65535 36122 ft 468 kts 52°
2026-04-26 18:03 46.42856 12.73252 36126 ft 468 kts 52°
2026-04-26 18:03 46.46604 12.80990 36117 ft 468 kts 52°
2026-04-26 18:04 46.50343 12.88734 36121 ft 468 kts 53°
2026-04-26 18:05 46.55948 13.00376 36118 ft 468 kts 53°
2026-04-26 18:05 46.59649 13.08088 36113 ft 468 kts 53°
2026-04-26 18:06 46.63374 13.15876 36112 ft 469 kts 53°
2026-04-26 18:06 46.67087 13.23661 36113 ft 469 kts 53°
2026-04-26 18:07 46.70309 13.31949 36114 ft 470 kts 60°
2026-04-26 18:07 46.73358 13.40397 36118 ft 471 kts 60°
2026-04-26 18:08 46.76375 13.48874 36112 ft 471 kts 60°
2026-04-26 18:08 46.79385 13.57380 36109 ft 471 kts 60°
2026-04-26 18:09 46.82364 13.65827 36114 ft 471 kts 60°
2026-04-26 18:09 46.85355 13.74339 36118 ft 471 kts 61°
2026-04-26 18:10 46.88340 13.82859 36120 ft 471 kts 61°
2026-04-26 18:10 46.91315 13.91381 36123 ft 471 kts 61°
2026-04-26 18:11 46.94286 13.99918 36125 ft 471 kts 61°
2026-04-26 18:11 46.97249 14.08460 36130 ft 471 kts 61°
2026-04-26 18:12 47.00209 14.17020 36130 ft 471 kts 61°
2026-04-26 18:12 47.03160 14.25585 36131 ft 471 kts 61°
2026-04-26 18:13 47.06093 14.34122 36141 ft 471 kts 61°
2026-04-26 18:13 47.09036 14.42718 36150 ft 471 kts 61°
2026-04-26 18:14 47.11681 14.51524 36158 ft 473 kts 72°
2026-04-26 18:14 47.13360 14.60886 36159 ft 474 kts 75°
2026-04-26 18:15 47.14954 14.70290 36109 ft 475 kts 75°
2026-04-26 18:15 47.15752 14.74981 35551 ft 473 kts 74°
2026-04-26 18:15 47.16550 14.79673 34639 ft 473 kts 74°
2026-04-26 18:15 47.17349 14.84378 33580 ft 475 kts 74°
2026-04-26 18:16 47.18139 14.89034 32515 ft 474 kts 74°
2026-04-26 18:16 47.19719 14.98391 30690 ft 467 kts 74°
2026-04-26 18:16 47.20493 15.02986 29948 ft 459 kts 74°
2026-04-26 18:17 47.21248 15.07491 29373 ft 447 kts 74°
2026-04-26 18:17 47.21985 15.11893 28800 ft 436 kts 74°
2026-04-26 18:17 47.22701 15.16184 28231 ft 427 kts 74°
2026-04-26 18:17 47.23402 15.20390 27680 ft 422 kts 75°
2026-04-26 18:18 47.24099 15.24574 27106 ft 422 kts 75°
2026-04-26 18:18 47.24796 15.28770 26517 ft 421 kts 75°
2026-04-26 18:18 47.25490 15.32964 25957 ft 421 kts 75°
2026-04-26 18:18 47.26182 15.37154 25376 ft 422 kts 75°
2026-04-26 18:19 47.26872 15.41348 24786 ft 422 kts 75°
2026-04-26 18:19 47.27563 15.45552 24194 ft 422 kts 75°
2026-04-26 18:19 47.28252 15.49756 23555 ft 422 kts 76°
2026-04-26 18:19 47.28939 15.53966 22904 ft 421 kts 76°
2026-04-26 18:20 47.29619 15.58140 22320 ft 418 kts 75°
2026-04-26 18:20 47.30294 15.62295 21716 ft 415 kts 75°
2026-04-26 18:20 47.30963 15.66418 21116 ft 413 kts 75°
2026-04-26 18:20 47.31179 15.67754 20918 ft 412 kts 75°
2026-04-26 18:21 47.32284 15.74595 19915 ft 408 kts 75°
2026-04-26 18:21 47.32947 15.78604 19277 ft 406 kts 72°
2026-04-26 18:21 47.33997 15.82501 18632 ft 399 kts 59°
2026-04-26 18:21 47.35543 15.85720 18293 ft 381 kts 46°
2026-04-26 18:22 47.37345 15.88489 18227 ft 370 kts 42°
2026-04-26 18:22 47.39194 15.91126 18184 ft 370 kts 41°
2026-04-26 18:22 47.41065 15.93738 17832 ft 370 kts 40°
2026-04-26 18:22 47.42941 15.96336 17351 ft 368 kts 40°
2026-04-26 18:23 47.44810 15.98918 16800 ft 367 kts 40°
2026-04-26 18:23 47.46668 16.01485 16142 ft 367 kts 39°
2026-04-26 18:23 47.48528 16.04052 15447 ft 365 kts 39°
2026-04-26 18:23 47.50380 16.06611 14753 ft 362 kts 39°
2026-04-26 18:24 47.52205 16.09135 14051 ft 358 kts 39°
2026-04-26 18:24 47.54014 16.11640 13245 ft 354 kts 39°
2026-04-26 18:24 47.55804 16.14120 12482 ft 351 kts 38°
2026-04-26 18:24 47.57583 16.16586 11730 ft 348 kts 38°
2026-04-26 18:25 47.59345 16.19030 10997 ft 345 kts 38°
2026-04-26 18:25 47.61087 16.21450 10275 ft 342 kts 38°
2026-04-26 18:25 47.62811 16.23845 9498 ft 338 kts 39°
2026-04-26 18:25 47.64521 16.26225 8774 ft 334 kts 39°
2026-04-26 18:26 47.66165 16.28522 8484 ft 315 kts 39°
2026-04-26 18:26 47.67712 16.30686 8226 ft 298 kts 38°
2026-04-26 18:26 47.69197 16.32762 7873 ft 287 kts 38°
2026-04-26 18:26 47.70621 16.34752 7534 ft 277 kts 38°
2026-04-26 18:27 47.72006 16.36687 7210 ft 271 kts 38°
2026-04-26 18:27 47.73363 16.38580 6859 ft 267 kts 38°
2026-04-26 18:27 47.74687 16.40430 6527 ft 264 kts 38°
2026-04-26 18:27 47.76027 16.42298 6168 ft 264 kts 39°
2026-04-26 18:28 47.77359 16.44161 5828 ft 263 kts 39°
2026-04-26 18:28 47.78685 16.46017 5496 ft 262 kts 39°
2026-04-26 18:28 47.80008 16.47873 5148 ft 260 kts 40°
2026-04-26 18:28 47.81317 16.49711 4717 ft 260 kts 40°
2026-04-26 18:29 47.82637 16.51564 4242 ft 261 kts 41°
2026-04-26 18:29 47.83946 16.53408 3904 ft 256 kts 41°
2026-04-26 18:29 47.85220 16.55203 3585 ft 250 kts 41°
2026-04-26 18:29 47.86466 16.56961 3376 ft 240 kts 41°
2026-04-26 18:30 47.87633 16.58609 3270 ft 222 kts 42°
2026-04-26 18:30 47.88705 16.60124 3119 ft 208 kts 41°
2026-04-26 18:30 47.89728 16.61570 2994 ft 196 kts 41°
2026-04-26 18:30 47.90712 16.62960 2999 ft 195 kts 41°
2026-04-26 18:31 47.91703 16.64327 2992 ft 193 kts 38°
2026-04-26 18:31 47.92912 16.65091 2998 ft 192 kts
2026-04-26 18:31 47.94225 16.65141 2997 ft 182 kts 355°
2026-04-26 18:31 47.95391 16.64797 2995 ft 163 kts 347°
2026-04-26 18:32 47.96464 16.64352 2990 ft 159 kts 346°
2026-04-26 18:32 47.97512 16.63908 2987 ft 150 kts 346°
2026-04-26 18:32 47.98166 16.63635 2913 ft 138 kts 347°
2026-04-26 18:32 47.99042 16.63273 2688 ft 128 kts 347°
2026-04-26 18:33 47.99889 16.62920 2498 ft 126 kts 347°
2026-04-26 18:33 48.00754 16.62556 2311 ft 128 kts 347°
2026-04-26 18:33 48.01600 16.62199 2139 ft 128 kts 347°
2026-04-26 18:33 48.02451 16.61840 1960 ft 128 kts 347°
2026-04-26 18:34 48.03307 16.61480 1786 ft 128 kts 347°
2026-04-26 18:34 48.04162 16.61119 1609 ft 128 kts 347°
2026-04-26 18:34 48.05029 16.60753 1436 ft 130 kts 347°
2026-04-26 18:34 48.05896 16.60388 1256 ft 129 kts 346°
2026-04-26 18:35 48.06755 16.60025 1078 ft 128 kts 345°
2026-04-26 18:35 48.07605 16.59666 886 ft 125 kts 346°
2026-04-26 18:35 48.08421 16.59322 736 ft 118 kts 346°
2026-04-26 18:35 48.09187 16.59001 623 ft 107 kts 345°
2026-04-26 18:36 48.09750 16.58761 620 ft 58 kts 344°
2026-04-26 18:36 48.10015 16.58594 621 ft 32 kts 313°
2026-04-26 18:36 48.10100 16.58389 620 ft 13 kts 298°
2026-04-26 18:36 48.10154 16.58313 617 ft 11 kts 341°
2026-04-26 18:37 48.10228 16.58280 620 ft 11 kts 346°
2026-04-26 18:37 48.10307 16.58247 620 ft 12 kts 344°
2026-04-26 18:37 48.10391 16.58210 626 ft 13 kts 343°
2026-04-26 18:37 48.10482 16.58172 622 ft 14 kts 344°
2026-04-26 18:38 48.10577 16.58131 615 ft 15 kts 345°
2026-04-26 18:38 48.10678 16.58089 624 ft 16 kts 344°
2026-04-26 18:38 48.10781 16.58046 615 ft 15 kts 344°
2026-04-26 18:38 48.10882 16.58003 615 ft 16 kts 344°
2026-04-26 18:39 48.10988 16.57958 621 ft 15 kts 345°
2026-04-26 18:39 48.11037 16.57937 624 ft 0 kts 343°
2026-04-26 18:40 48.11048 16.57932 620 ft 5 kts 343°
2026-04-26 18:40 48.11090 16.57905 617 ft 7 kts 322°
2026-04-26 18:40 48.11116 16.57844 616 ft 7 kts 294°
2026-04-26 18:40 48.11137 16.57778 616 ft 4 kts 296°
2026-04-26 18:41 48.11156 16.57749 620 ft 5 kts 332°
2026-04-26 18:41 48.11220 16.57720 625 ft 14 kts 347°
2026-04-26 18:41 48.11318 16.57679 622 ft 15 kts 345°